sat.trackr.live / text

‹ back to catalog

SPARTAN

NORAD 48964 · 2021-059CP

PAYLOAD ACTIVE UNKNOWN

§ Identity

Operator
Country
BUL
Launch date
2021-06-30
Launch site
AFETR
Launch vehicle
Mass (kg)
RCS (m²)

External: N2YO · Heavens-Above · Gunter

§ Orbital elements

Epoch: 2026-05-25T01:23:11.255424Z

Period
91.37 min
Inclination
97.6797°
Eccentricity
0.0001775
Mean motion
15.76060035 rev/d
Perigee alt
340.4 km
Apogee alt
342.8 km
Semi-major
6,719.8 km
B*
4.2570e-4
RAAN
343.0818°
Arg perigee
75.0077°
Mean anomaly
285.1384°
Rev number
27,428

§ Raw data

SPARTAN1 48964U 21059CP  26145.05776916  .00066324  00000+0  42570-3 0  99982 48964  97.6797 343.0818 0001775  75.0077 285.1384 15.76060035274288

JSON: /api/v1/satellites/48964 · /tle

For live sub-satellite position, see the globe view (requires WebGL).

§ Visibility from observer

Set your observer location to see the next 7 days of passes ≥ 10°. The values pass through the URL so the page stays shareable.

No JS? Fill the form by hand. The geolocation button needs JavaScript.